Location: Ferchesar
(52.6477°N, 12.4298°E)
Time: 03:47:56
(UTC+01:00)

Vanguard 1 - Pass Details

Date: 08 December 2021
Orbit: 652 x 3830 km, 34.2° (Epoch: 21 January)

Event Time Altitude Azimuth Distance (km) Brightness Sun altitude
Rises 20:16:23 0° 182° (S) 6,352 14.1 -38.1°
Reaches altitude 10° 20:22:27 10° 165° (SSE) 5,880 13.7 -39.0°
Enters shadow 20:22:53 11° 164° (SSE) 5,859 13.7 -39.0°
Maximum altitude 20:33:23 18° 130° (SE) 5,880 - -40.6°
Drops below altitude 10° 20:45:57 10° 96° (E) 6,932 - -42.4°
Sets 20:54:06 0° 82° (E) 7,920 - -43.5°
